Regional Weather Roundup
Issued by NWS

Home | Current Version | Previous Version | Graphics & Text | Print | Product List | Glossary On
Versions: 1 2 3 4 5 6 7 8 9 10 11 12 13 14 15 16 17 18 19 20 21 22 23 24 25 26 27 28 29 30 31 32 33 34 35 36 37 38 39 40 41 42 43 44 45 46 47 48 49 50
000
ASUS43 KTOP 031659
RWRKS

WEATHER ROUNDUP FOR KANSAS
NATIONAL WEATHER SERVICE GOODLAND KS
1200 PM CDT MON AUG 03 2015

NOTE:  "FAIR" INDICATES FEW OR NO CLOUDS BELOW 12,000 FEET WITH NO
SIGNIFICANT WEATHER AND/OR OBSTRUCTIONS TO VISIBILITY.

KSZ001>006-013>018-027>032-041>047-031800-
NORTHWEST KANSAS

CITY           SKY/WX    TMP DP  RH WIND       PRES   REMARKS
GOODLAND       MOSUNNY   86  59  39 SE10      30.03S
HAYS           MOSUNNY   88  66  48 SE8       29.96S
HILL CITY      MOSUNNY   87  67  51 NE8       29.99R
RUSSELL        MOSUNNY   88  68  51 VRB6      29.95R
$$

KSZ061>065-074>080-084>089-031800-
SOUTHWEST KANSAS

CITY           SKY/WX    TMP DP  RH WIND       PRES   REMARKS
DODGE CITY     MOSUNNY   84  62  47 S12G20    29.99S
ELKHART          N/A     83  64  52 SE7         N/A
GARDEN CITY    MOSUNNY   83  67  58 S7        29.98F
GREAT BEND     MOSUNNY   88  68  51 S8        29.94F
LIBERAL        SUNNY     84  64  51 S10       30.00R
PRATT          MOSUNNY   84  66  54 CALM      29.99S
$$

KSZ066>073-081>083-090>101-031800-
SOUTHEAST KANSAS

CITY           SKY/WX    TMP DP  RH WIND       PRES   REMARKS
CHANUTE        MOSUNNY   88  67  49 S8        29.96R
COFFEYVILLE    MOSUNNY   90  65  43 SW12      29.94F
HUTCHINSON     PTSUNNY   88  69  53 SW8       29.95S
MEDICINE LODGE   N/A     85  69  58 SW9       29.95F
NEWTON         MOSUNNY   84  68  58 SW10      29.98S
PARSONS        SUNNY     90  67  46 SW7       29.96S
WICHITA INTL   PTSUNNY   87  71  58 SW10      29.94F
WICHITA JABRA  PTSUNNY   87  70  56 SW13      29.94F
WINFIELD       PTSUNNY   86  70  58 W7        29.96F
$$

KSZ007>012-019>026-033>040-048>060-102>105-031800-
NORTHEAST KANSAS

CITY           SKY/WX    TMP DP  RH WIND       PRES   REMARKS
CONCORDIA      MOSUNNY   84  72  67 N12       29.96F
EMPORIA        SUNNY     89  67  47 W5        29.95S
LAWRENCE       SUNNY     88  70  55 SW7       29.93F
MANHATTAN      SUNNY     88  68  51 CALM      29.93F
OLATHE IND     SUNNY     88  69  53 SW10      29.95F
OLATHE EXE     SUNNY     86  69  56 VRB6      29.94F
SALINA         SUNNY     89  69  51 VRB5      29.94S
TOPEKA BILLARD SUNNY     88  70  55 W6        29.93F
TOPEKA FORBES  MOSUNNY   89  69  51 SW9       29.94F
$$


USA.gov is the U.S. government's official web portal to all federal, state and local government web resources and services.